Regional Weather Roundup
Issued by NWS Goodland, KS

Home | Current Version | Previous Version | Graphics & Text | Print | Product List | Glossary On
Versions: 1 2 3 4 5 6 7 8 9 10 11 12 13 14 15 16 17 18 19 20 21 22 23 24 25 26 27 28 29 30 31 32 33 34 35 36 37 38 39 40 41 42 43 44 45 46 47 48 49 50
445
ASUS43 KGLD 101608
RWRGLD

GOODLAND FORECAST AREA HOURLY WEATHER ROUNDUP
NATIONAL WEATHER SERVICE GOODLAND KS
900 AM MST SAT DEC 10 2016

...OFFICIAL OBSERVATIONS...

CITY           SKY/WX    TMP DP  RH WIND       PRES   REMARKS
GOODLAND KS    CLOUDY    21  19  92 S10       29.97F FOG     WCI  10
HILL CITY KS   CLOUDY    24  16  71 SE12      30.14F WCI  13
IMPERIAL NEB   CLOUDY    19  15  84 SE16      29.96F WCI   4
MCCOOK NEB     CLOUDY    20  14  77 SE14      30.07F WCI   7
AKRON CO       CLOUDY    26  20  77 SW9       29.88F
BURLINGTON CO  CLOUDY    26  20  77 S8        29.94F
LIMON CO       CLOUDY    33  26  75 CALM      29.90F
$$

...UNOFFICIAL OBSERVATIONS...

CITY           SKY/WX    TMP DP  RH WIND       PRES   REMARKS
COLBY KS       CLOUDY    21  21 100 S13       30.03F WCI   9
LENORA KS        N/A     23  32 100 MISG        N/A
NORTON KS      SUNNY     23  14  68 SE13      30.10F WCI  11
SHARON SPRINGS   N/A     22  20  92 S10         N/A  WCI  11
TRENTON NEB      N/A     19  32 100 S9          N/A
KIT CARSON CO    N/A     20  17  89 CALM        N/A
YUMA CO        FAIR     N/A N/A N/A W8        29.91F
$$




USA.gov is the U.S. government's official web portal to all federal, state and local government web resources and services.